Index of /20260508/WXO-DD/model_caps/3km/00/007
Name Last modified Size Description
Parent Directory -
20260508T00Z_MSC_CAPS_AbsoluteVorticity_IsbL-0250_RLatLon0.03_PT007H.grib2 2026-05-08 06:06 1.3M
20260508T00Z_MSC_CAPS_AbsoluteVorticity_IsbL-0500_RLatLon0.03_PT007H.grib2 2026-05-08 06:06 1.1M
20260508T00Z_MSC_CAPS_AbsoluteVorticity_IsbL-0700_RLatLon0.03_PT007H.grib2 2026-05-08 06:06 1.3M
20260508T00Z_MSC_CAPS_AbsoluteVorticity_IsbL-0850_RLatLon0.03_PT007H.grib2 2026-05-08 06:06 1.5M
20260508T00Z_MSC_CAPS_AbsoluteVorticity_IsbL-1000_RLatLon0.03_PT007H.grib2 2026-05-08 06:06 1.3M
20260508T00Z_MSC_CAPS_AirDensity_AGL-120m_RLatLon0.03_PT007H.grib2 2026-05-08 06:06 1.4M
20260508T00Z_MSC_CAPS_AirDensity_AGL-40m_RLatLon0.03_PT007H.grib2 2026-05-08 06:06 1.4M
20260508T00Z_MSC_CAPS_AirDensity_AGL-80m_RLatLon0.03_PT007H.grib2 2026-05-08 06:06 1.4M
20260508T00Z_MSC_CAPS_AirTemp_AGL-120m_RLatLon0.03_PT007H.grib2 2026-05-08 06:06 1.4M
20260508T00Z_MSC_CAPS_AirTemp_AGL-2m_RLatLon0.03_PT007H.grib2 2026-05-08 06:06 1.8M
20260508T00Z_MSC_CAPS_AirTemp_AGL-40m_RLatLon0.03_PT007H.grib2 2026-05-08 06:06 1.5M
20260508T00Z_MSC_CAPS_AirTemp_AGL-80m_RLatLon0.03_PT007H.grib2 2026-05-08 06:06 1.4M
20260508T00Z_MSC_CAPS_AirTemp_IsbL-0050_RLatLon0.03_PT007H.grib2 2026-05-08 06:06 692K
20260508T00Z_MSC_CAPS_AirTemp_IsbL-0100_RLatLon0.03_PT007H.grib2 2026-05-08 06:06 944K
20260508T00Z_MSC_CAPS_AirTemp_IsbL-0150_RLatLon0.03_PT007H.grib2 2026-05-08 06:06 748K
20260508T00Z_MSC_CAPS_AirTemp_IsbL-0175_RLatLon0.03_PT007H.grib2 2026-05-08 06:06 775K
20260508T00Z_MSC_CAPS_AirTemp_IsbL-0200_RLatLon0.03_PT007H.grib2 2026-05-08 06:06 797K
20260508T00Z_MSC_CAPS_AirTemp_IsbL-0225_RLatLon0.03_PT007H.grib2 2026-05-08 06:06 796K
20260508T00Z_MSC_CAPS_AirTemp_IsbL-0250_RLatLon0.03_PT007H.grib2 2026-05-08 06:06 784K
20260508T00Z_MSC_CAPS_AirTemp_IsbL-0275_RLatLon0.03_PT007H.grib2 2026-05-08 06:06 1.0M
20260508T00Z_MSC_CAPS_AirTemp_IsbL-0300_RLatLon0.03_PT007H.grib2 2026-05-08 06:06 1.0M
20260508T00Z_MSC_CAPS_AirTemp_IsbL-0350_RLatLon0.03_PT007H.grib2 2026-05-08 06:06 754K
20260508T00Z_MSC_CAPS_AirTemp_IsbL-0400_RLatLon0.03_PT007H.grib2 2026-05-08 06:06 754K
20260508T00Z_MSC_CAPS_AirTemp_IsbL-0450_RLatLon0.03_PT007H.grib2 2026-05-08 06:06 771K
20260508T00Z_MSC_CAPS_AirTemp_IsbL-0500_RLatLon0.03_PT007H.grib2 2026-05-08 06:06 785K
20260508T00Z_MSC_CAPS_AirTemp_IsbL-0550_RLatLon0.03_PT007H.grib2 2026-05-08 06:06 953K
20260508T00Z_MSC_CAPS_AirTemp_IsbL-0600_RLatLon0.03_PT007H.grib2 2026-05-08 06:06 966K
20260508T00Z_MSC_CAPS_AirTemp_IsbL-0650_RLatLon0.03_PT007H.grib2 2026-05-08 06:06 838K
20260508T00Z_MSC_CAPS_AirTemp_IsbL-0700_RLatLon0.03_PT007H.grib2 2026-05-08 06:06 868K
20260508T00Z_MSC_CAPS_AirTemp_IsbL-0750_RLatLon0.03_PT007H.grib2 2026-05-08 06:06 1.0M
20260508T00Z_MSC_CAPS_AirTemp_IsbL-0800_RLatLon0.03_PT007H.grib2 2026-05-08 06:06 1.0M
20260508T00Z_MSC_CAPS_AirTemp_IsbL-0850_RLatLon0.03_PT007H.grib2 2026-05-08 06:06 1.1M
20260508T00Z_MSC_CAPS_AirTemp_IsbL-0875_RLatLon0.03_PT007H.grib2 2026-05-08 06:06 1.1M
20260508T00Z_MSC_CAPS_AirTemp_IsbL-0900_RLatLon0.03_PT007H.grib2 2026-05-08 06:06 1.1M
20260508T00Z_MSC_CAPS_AirTemp_IsbL-0925_RLatLon0.03_PT007H.grib2 2026-05-08 06:06 1.1M
20260508T00Z_MSC_CAPS_AirTemp_IsbL-0950_RLatLon0.03_PT007H.grib2 2026-05-08 06:06 1.1M
20260508T00Z_MSC_CAPS_AirTemp_IsbL-0970_RLatLon0.03_PT007H.grib2 2026-05-08 06:06 1.1M
20260508T00Z_MSC_CAPS_AirTemp_IsbL-0985_RLatLon0.03_PT007H.grib2 2026-05-08 06:06 1.1M
20260508T00Z_MSC_CAPS_AirTemp_IsbL-1000_RLatLon0.03_PT007H.grib2 2026-05-08 06:06 1.1M
20260508T00Z_MSC_CAPS_AirTemp_IsbL-1015_RLatLon0.03_PT007H.grib2 2026-05-08 06:06 1.2M
20260508T00Z_MSC_CAPS_Albedo_Sfc_RLatLon0.03_PT007H.grib2 2026-05-08 06:06 2.7M
20260508T00Z_MSC_CAPS_CAPE_Sfc_RLatLon0.03_PT007H.grib2 2026-05-08 06:06 250K
20260508T00Z_MSC_CAPS_CloudWater_EAtm_RLatLon0.03_PT007H.grib2 2026-05-08 06:06 1.5M
20260508T00Z_MSC_CAPS_ConvectivePrecip-Accum_Sfc_RLatLon0.03_PT007H.grib2 2026-05-08 06:06 2.1M
20260508T00Z_MSC_CAPS_DewPointDepression_AGL-120m_RLatLon0.03_PT007H.grib2 2026-05-08 06:06 2.0M
20260508T00Z_MSC_CAPS_DewPointDepression_AGL-2m_RLatLon0.03_PT007H.grib2 2026-05-08 06:06 2.2M
20260508T00Z_MSC_CAPS_DewPointDepression_AGL-40m_RLatLon0.03_PT007H.grib2 2026-05-08 06:06 2.1M
20260508T00Z_MSC_CAPS_DewPointDepression_AGL-80m_RLatLon0.03_PT007H.grib2 2026-05-08 06:06 2.1M
20260508T00Z_MSC_CAPS_DewPointDepression_IsbL-0050_RLatLon0.03_PT007H.grib2 2026-05-08 06:06 8.0K
20260508T00Z_MSC_CAPS_DewPointDepression_IsbL-0100_RLatLon0.03_PT007H.grib2 2026-05-08 06:06 56K
20260508T00Z_MSC_CAPS_DewPointDepression_IsbL-0150_RLatLon0.03_PT007H.grib2 2026-05-08 06:06 78K
20260508T00Z_MSC_CAPS_DewPointDepression_IsbL-0175_RLatLon0.03_PT007H.grib2 2026-05-08 06:06 198K
20260508T00Z_MSC_CAPS_DewPointDepression_IsbL-0200_RLatLon0.03_PT007H.grib2 2026-05-08 06:06 390K
20260508T00Z_MSC_CAPS_DewPointDepression_IsbL-0225_RLatLon0.03_PT007H.grib2 2026-05-08 06:06 583K
20260508T00Z_MSC_CAPS_DewPointDepression_IsbL-0250_RLatLon0.03_PT007H.grib2 2026-05-08 06:06 836K
20260508T00Z_MSC_CAPS_DewPointDepression_IsbL-0275_RLatLon0.03_PT007H.grib2 2026-05-08 06:06 1.0M
20260508T00Z_MSC_CAPS_DewPointDepression_IsbL-0300_RLatLon0.03_PT007H.grib2 2026-05-08 06:06 1.0M
20260508T00Z_MSC_CAPS_DewPointDepression_IsbL-0350_RLatLon0.03_PT007H.grib2 2026-05-08 06:06 1.0M
20260508T00Z_MSC_CAPS_DewPointDepression_IsbL-0400_RLatLon0.03_PT007H.grib2 2026-05-08 06:06 1.1M
20260508T00Z_MSC_CAPS_DewPointDepression_IsbL-0450_RLatLon0.03_PT007H.grib2 2026-05-08 06:06 1.1M
20260508T00Z_MSC_CAPS_DewPointDepression_IsbL-0500_RLatLon0.03_PT007H.grib2 2026-05-08 06:06 1.1M
20260508T00Z_MSC_CAPS_DewPointDepression_IsbL-0550_RLatLon0.03_PT007H.grib2 2026-05-08 06:06 1.2M
20260508T00Z_MSC_CAPS_DewPointDepression_IsbL-0600_RLatLon0.03_PT007H.grib2 2026-05-08 06:06 1.2M
20260508T00Z_MSC_CAPS_DewPointDepression_IsbL-0650_RLatLon0.03_PT007H.grib2 2026-05-08 06:06 1.2M
20260508T00Z_MSC_CAPS_DewPointDepression_IsbL-0700_RLatLon0.03_PT007H.grib2 2026-05-08 06:06 1.3M
20260508T00Z_MSC_CAPS_DewPointDepression_IsbL-0750_RLatLon0.03_PT007H.grib2 2026-05-08 06:06 1.3M
20260508T00Z_MSC_CAPS_DewPointDepression_IsbL-0800_RLatLon0.03_PT007H.grib2 2026-05-08 06:06 1.3M
20260508T00Z_MSC_CAPS_DewPointDepression_IsbL-0850_RLatLon0.03_PT007H.grib2 2026-05-08 06:06 1.3M
20260508T00Z_MSC_CAPS_DewPointDepression_IsbL-0875_RLatLon0.03_PT007H.grib2 2026-05-08 06:06 1.4M
20260508T00Z_MSC_CAPS_DewPointDepression_IsbL-0900_RLatLon0.03_PT007H.grib2 2026-05-08 06:06 1.4M
20260508T00Z_MSC_CAPS_DewPointDepression_IsbL-0925_RLatLon0.03_PT007H.grib2 2026-05-08 06:06 1.4M
20260508T00Z_MSC_CAPS_DewPointDepression_IsbL-0950_RLatLon0.03_PT007H.grib2 2026-05-08 06:06 1.4M
20260508T00Z_MSC_CAPS_DewPointDepression_IsbL-0970_RLatLon0.03_PT007H.grib2 2026-05-08 06:06 1.4M
20260508T00Z_MSC_CAPS_DewPointDepression_IsbL-0985_RLatLon0.03_PT007H.grib2 2026-05-08 06:06 1.4M
20260508T00Z_MSC_CAPS_DewPointDepression_IsbL-1000_RLatLon0.03_PT007H.grib2 2026-05-08 06:06 1.4M
20260508T00Z_MSC_CAPS_DewPointDepression_IsbL-1015_RLatLon0.03_PT007H.grib2 2026-05-08 06:06 1.4M
20260508T00Z_MSC_CAPS_DewPoint_AGL-120m_RLatLon0.03_PT007H.grib2 2026-05-08 06:06 3.6M
20260508T00Z_MSC_CAPS_DewPoint_AGL-2m_RLatLon0.03_PT007H.grib2 2026-05-08 06:06 1.8M
20260508T00Z_MSC_CAPS_DewPoint_AGL-40m_RLatLon0.03_PT007H.grib2 2026-05-08 06:06 3.7M
20260508T00Z_MSC_CAPS_DewPoint_AGL-80m_RLatLon0.03_PT007H.grib2 2026-05-08 06:06 3.6M
20260508T00Z_MSC_CAPS_DownwardLongwaveRadiationFlux-Accum_Sfc_RLatLon0.03_PT007H.grib2 2026-05-08 06:06 2.6M
20260508T00Z_MSC_CAPS_DownwardShortwaveRadiationFlux-Accum_NTAtm_RLatLon0.03_PT007H.grib2 2026-05-08 06:06 382K
20260508T00Z_MSC_CAPS_DownwardShortwaveRadiationFlux-Accum_Sfc_RLatLon0.03_PT007H.grib2 2026-05-08 06:06 1.9M
20260508T00Z_MSC_CAPS_FreezingRain-Accum_Sfc_RLatLon0.03_PT007H.grib2 2026-05-08 06:06 298K
20260508T00Z_MSC_CAPS_GeopotentialHeight_IsbL-0050_RLatLon0.03_PT007H.grib2 2026-05-08 06:06 830K
20260508T00Z_MSC_CAPS_GeopotentialHeight_IsbL-0100_RLatLon0.03_PT007H.grib2 2026-05-08 06:06 747K
20260508T00Z_MSC_CAPS_GeopotentialHeight_IsbL-0150_RLatLon0.03_PT007H.grib2 2026-05-08 06:06 597K
20260508T00Z_MSC_CAPS_GeopotentialHeight_IsbL-0175_RLatLon0.03_PT007H.grib2 2026-05-08 06:06 714K
20260508T00Z_MSC_CAPS_GeopotentialHeight_IsbL-0200_RLatLon0.03_PT007H.grib2 2026-05-08 06:06 735K
20260508T00Z_MSC_CAPS_GeopotentialHeight_IsbL-0225_RLatLon0.03_PT007H.grib2 2026-05-08 06:06 748K
20260508T00Z_MSC_CAPS_GeopotentialHeight_IsbL-0250_RLatLon0.03_PT007H.grib2 2026-05-08 06:06 759K
20260508T00Z_MSC_CAPS_GeopotentialHeight_IsbL-0275_RLatLon0.03_PT007H.grib2 2026-05-08 06:06 771K
20260508T00Z_MSC_CAPS_GeopotentialHeight_IsbL-0300_RLatLon0.03_PT007H.grib2 2026-05-08 06:06 775K
20260508T00Z_MSC_CAPS_GeopotentialHeight_IsbL-0350_RLatLon0.03_PT007H.grib2 2026-05-08 06:06 777K
20260508T00Z_MSC_CAPS_GeopotentialHeight_IsbL-0400_RLatLon0.03_PT007H.grib2 2026-05-08 06:06 771K
20260508T00Z_MSC_CAPS_GeopotentialHeight_IsbL-0450_RLatLon0.03_PT007H.grib2 2026-05-08 06:06 763K
20260508T00Z_MSC_CAPS_GeopotentialHeight_IsbL-0500_RLatLon0.03_PT007H.grib2 2026-05-08 06:06 754K
20260508T00Z_MSC_CAPS_GeopotentialHeight_IsbL-0550_RLatLon0.03_PT007H.grib2 2026-05-08 06:06 744K
20260508T00Z_MSC_CAPS_GeopotentialHeight_IsbL-0600_RLatLon0.03_PT007H.grib2 2026-05-08 06:06 626K
20260508T00Z_MSC_CAPS_GeopotentialHeight_IsbL-0650_RLatLon0.03_PT007H.grib2 2026-05-08 06:06 623K
20260508T00Z_MSC_CAPS_GeopotentialHeight_IsbL-0700_RLatLon0.03_PT007H.grib2 2026-05-08 06:06 624K
20260508T00Z_MSC_CAPS_GeopotentialHeight_IsbL-0750_RLatLon0.03_PT007H.grib2 2026-05-08 06:06 622K
20260508T00Z_MSC_CAPS_GeopotentialHeight_IsbL-0800_RLatLon0.03_PT007H.grib2 2026-05-08 06:06 623K
20260508T00Z_MSC_CAPS_GeopotentialHeight_IsbL-0850_RLatLon0.03_PT007H.grib2 2026-05-08 06:06 811K
20260508T00Z_MSC_CAPS_GeopotentialHeight_IsbL-0875_RLatLon0.03_PT007H.grib2 2026-05-08 06:06 807K
20260508T00Z_MSC_CAPS_GeopotentialHeight_IsbL-0900_RLatLon0.03_PT007H.grib2 2026-05-08 06:06 829K
20260508T00Z_MSC_CAPS_GeopotentialHeight_IsbL-0925_RLatLon0.03_PT007H.grib2 2026-05-08 06:06 840K
20260508T00Z_MSC_CAPS_GeopotentialHeight_IsbL-0950_RLatLon0.03_PT007H.grib2 2026-05-08 06:06 657K
20260508T00Z_MSC_CAPS_GeopotentialHeight_IsbL-0970_RLatLon0.03_PT007H.grib2 2026-05-08 06:06 665K
20260508T00Z_MSC_CAPS_GeopotentialHeight_IsbL-0985_RLatLon0.03_PT007H.grib2 2026-05-08 06:06 671K
20260508T00Z_MSC_CAPS_GeopotentialHeight_IsbL-1000_RLatLon0.03_PT007H.grib2 2026-05-08 06:06 678K
20260508T00Z_MSC_CAPS_GeopotentialHeight_IsbL-1015_RLatLon0.03_PT007H.grib2 2026-05-08 06:06 687K
20260508T00Z_MSC_CAPS_GeopotentialHeight_Sfc_RLatLon0.03_PT007H.grib2 2026-05-08 06:06 1.0M
20260508T00Z_MSC_CAPS_IcePellets-Accum_Sfc_RLatLon0.03_PT007H.grib2 2026-05-08 06:06 4.4K
20260508T00Z_MSC_CAPS_LatentHeatNetFlux_Sfc_RLatLon0.03_PT007H.grib2 2026-05-08 06:06 1.8M
20260508T00Z_MSC_CAPS_LiftedIndex-MU-VT_IsbL-0500_RLatLon0.03_PT007H.grib2 2026-05-08 06:06 3.3M
20260508T00Z_MSC_CAPS_MixedLayerThickness_Sfc_RLatLon0.03_PT007H.nc 2026-05-08 06:12 16M
20260508T00Z_MSC_CAPS_NetLongwaveRadiationFlux-Accum_Sfc_RLatLon0.03_PT007H.grib2 2026-05-08 06:06 2.8M
20260508T00Z_MSC_CAPS_NetShortwaveRadiationFlux-Accum_Sfc_RLatLon0.03_PT007H.grib2 2026-05-08 06:06 2.0M
20260508T00Z_MSC_CAPS_PlanetaryBoundaryLayerHeight_Sfc_RLatLon0.03_PT007H.grib2 2026-05-08 06:06 2.8M
20260508T00Z_MSC_CAPS_Precip-Accum_Sfc_RLatLon0.03_PT007H.grib2 2026-05-08 06:06 3.5M
20260508T00Z_MSC_CAPS_PrecipRate_Sfc_RLatLon0.03_PT007H.grib2 2026-05-08 06:06 383K
20260508T00Z_MSC_CAPS_PrecipType-Instant_Sfc_RLatLon0.03_PT007H.grib2 2026-05-08 06:06 1.7M
20260508T00Z_MSC_CAPS_Pressure_MSL_RLatLon0.03_PT007H.grib2 2026-05-08 06:06 914K
20260508T00Z_MSC_CAPS_Pressure_Sfc_RLatLon0.03_PT007H.grib2 2026-05-08 06:06 1.2M
20260508T00Z_MSC_CAPS_RadiativeTemp_Sfc_RLatLon0.03_PT007H.grib2 2026-05-08 06:06 2.1M
20260508T00Z_MSC_CAPS_Rain-Accum_Sfc_RLatLon0.03_PT007H.grib2 2026-05-08 06:06 1.7M
20260508T00Z_MSC_CAPS_RelativeHumidity_AGL-120m_RLatLon0.03_PT007H.grib2 2026-05-08 06:06 2.8M
20260508T00Z_MSC_CAPS_RelativeHumidity_AGL-2m_RLatLon0.03_PT007H.grib2 2026-05-08 06:06 2.9M
20260508T00Z_MSC_CAPS_RelativeHumidity_AGL-40m_RLatLon0.03_PT007H.grib2 2026-05-08 06:06 2.8M
20260508T00Z_MSC_CAPS_RelativeHumidity_AGL-80m_RLatLon0.03_PT007H.grib2 2026-05-08 06:06 2.8M
20260508T00Z_MSC_CAPS_RelativeHumidity_IsbL-0050_RLatLon0.03_PT007H.grib2 2026-05-08 06:06 709K
20260508T00Z_MSC_CAPS_RelativeHumidity_IsbL-0100_RLatLon0.03_PT007H.grib2 2026-05-08 06:06 1.1M
20260508T00Z_MSC_CAPS_RelativeHumidity_IsbL-0150_RLatLon0.03_PT007H.grib2 2026-05-08 06:06 571K
20260508T00Z_MSC_CAPS_RelativeHumidity_IsbL-0175_RLatLon0.03_PT007H.grib2 2026-05-08 06:06 458K
20260508T00Z_MSC_CAPS_RelativeHumidity_IsbL-0200_RLatLon0.03_PT007H.grib2 2026-05-08 06:06 680K
20260508T00Z_MSC_CAPS_RelativeHumidity_IsbL-0225_RLatLon0.03_PT007H.grib2 2026-05-08 06:06 902K
20260508T00Z_MSC_CAPS_RelativeHumidity_IsbL-0250_RLatLon0.03_PT007H.grib2 2026-05-08 06:06 1.1M
20260508T00Z_MSC_CAPS_RelativeHumidity_IsbL-0275_RLatLon0.03_PT007H.grib2 2026-05-08 06:06 1.4M
20260508T00Z_MSC_CAPS_RelativeHumidity_IsbL-0300_RLatLon0.03_PT007H.grib2 2026-05-08 06:06 1.7M
20260508T00Z_MSC_CAPS_RelativeHumidity_IsbL-0350_RLatLon0.03_PT007H.grib2 2026-05-08 06:06 1.9M
20260508T00Z_MSC_CAPS_RelativeHumidity_IsbL-0400_RLatLon0.03_PT007H.grib2 2026-05-08 06:06 2.0M
20260508T00Z_MSC_CAPS_RelativeHumidity_IsbL-0450_RLatLon0.03_PT007H.grib2 2026-05-08 06:06 2.2M
20260508T00Z_MSC_CAPS_RelativeHumidity_IsbL-0500_RLatLon0.03_PT007H.grib2 2026-05-08 06:06 2.1M
20260508T00Z_MSC_CAPS_RelativeHumidity_IsbL-0550_RLatLon0.03_PT007H.grib2 2026-05-08 06:06 2.3M
20260508T00Z_MSC_CAPS_RelativeHumidity_IsbL-0600_RLatLon0.03_PT007H.grib2 2026-05-08 06:06 2.3M
20260508T00Z_MSC_CAPS_RelativeHumidity_IsbL-0650_RLatLon0.03_PT007H.grib2 2026-05-08 06:06 2.2M
20260508T00Z_MSC_CAPS_RelativeHumidity_IsbL-0700_RLatLon0.03_PT007H.grib2 2026-05-08 06:06 2.2M
20260508T00Z_MSC_CAPS_RelativeHumidity_IsbL-0750_RLatLon0.03_PT007H.grib2 2026-05-08 06:06 2.4M
20260508T00Z_MSC_CAPS_RelativeHumidity_IsbL-0800_RLatLon0.03_PT007H.grib2 2026-05-08 06:06 2.5M
20260508T00Z_MSC_CAPS_RelativeHumidity_IsbL-0850_RLatLon0.03_PT007H.grib2 2026-05-08 06:06 2.6M
20260508T00Z_MSC_CAPS_RelativeHumidity_IsbL-0875_RLatLon0.03_PT007H.grib2 2026-05-08 06:06 2.6M
20260508T00Z_MSC_CAPS_RelativeHumidity_IsbL-0900_RLatLon0.03_PT007H.grib2 2026-05-08 06:06 2.7M
20260508T00Z_MSC_CAPS_RelativeHumidity_IsbL-0925_RLatLon0.03_PT007H.grib2 2026-05-08 06:06 2.7M
20260508T00Z_MSC_CAPS_RelativeHumidity_IsbL-0950_RLatLon0.03_PT007H.grib2 2026-05-08 06:06 2.8M
20260508T00Z_MSC_CAPS_RelativeHumidity_IsbL-0970_RLatLon0.03_PT007H.grib2 2026-05-08 06:06 2.8M
20260508T00Z_MSC_CAPS_RelativeHumidity_IsbL-0985_RLatLon0.03_PT007H.grib2 2026-05-08 06:06 2.8M
20260508T00Z_MSC_CAPS_RelativeHumidity_IsbL-1000_RLatLon0.03_PT007H.grib2 2026-05-08 06:06 2.9M
20260508T00Z_MSC_CAPS_RelativeHumidity_IsbL-1015_RLatLon0.03_PT007H.grib2 2026-05-08 06:06 2.9M
20260508T00Z_MSC_CAPS_Runoff-Accum_Sfc_RLatLon0.03_PT007H.grib2 2026-05-08 06:06 297K
20260508T00Z_MSC_CAPS_SeaIceAreaFraction_Sfc_RLatLon0.03_PT007H.nc 2026-05-08 06:12 15M
20260508T00Z_MSC_CAPS_SeaIceCompressiveStrength_Sfc_RLatLon0.03_PT007H.nc 2026-05-08 06:12 15M
20260508T00Z_MSC_CAPS_SeaIceDivergence_Sfc_RLatLon0.03_PT007H.nc 2026-05-08 06:12 15M
20260508T00Z_MSC_CAPS_SeaIceInternalPressure_Sfc_RLatLon0.03_PT007H.nc 2026-05-08 06:12 15M
20260508T00Z_MSC_CAPS_SeaIceShear_Sfc_RLatLon0.03_PT007H.nc 2026-05-08 06:12 15M
20260508T00Z_MSC_CAPS_SeaIceSnowTemp_Sfc_RLatLon0.03_PT007H.nc 2026-05-08 06:12 14M
20260508T00Z_MSC_CAPS_SeaIceSnowVolume_Sfc_RLatLon0.03_PT007H.nc 2026-05-08 06:12 15M
20260508T00Z_MSC_CAPS_SeaIceVelocityX_Sfc_RLatLon0.03_PT007H.nc 2026-05-08 06:12 15M
20260508T00Z_MSC_CAPS_SeaIceVelocityY_Sfc_RLatLon0.03_PT007H.nc 2026-05-08 06:12 15M
20260508T00Z_MSC_CAPS_SeaIceVolume_Sfc_RLatLon0.03_PT007H.nc 2026-05-08 06:12 15M
20260508T00Z_MSC_CAPS_SeaSurfaceHeight_Sfc_RLatLon0.03_PT007H.nc 2026-05-08 06:12 16M
20260508T00Z_MSC_CAPS_SeaWaterSalinity_DBS-0.5m_RLatLon0.03_PT007H.nc 2026-05-08 06:12 16M
20260508T00Z_MSC_CAPS_SeaWaterSalinity_DBS-all_RLatLon0.03_PT007H.nc 2026-05-08 06:12 107M
20260508T00Z_MSC_CAPS_SeaWaterTemp_DBS-0.5m_RLatLon0.03_PT007H.nc 2026-05-08 06:12 15M
20260508T00Z_MSC_CAPS_SeaWaterTemp_DBS-all_RLatLon0.03_PT007H.nc 2026-05-08 06:12 88M
20260508T00Z_MSC_CAPS_SeaWaterVelocityX_DBS-0.5m_RLatLon0.03_PT007H.nc 2026-05-08 06:12 18M
20260508T00Z_MSC_CAPS_SeaWaterVelocityX_DBS-all_RLatLon0.03_PT007H.nc 2026-05-08 06:12 211M
20260508T00Z_MSC_CAPS_SeaWaterVelocityY_DBS-0.5m_RLatLon0.03_PT007H.nc 2026-05-08 06:12 18M
20260508T00Z_MSC_CAPS_SeaWaterVelocityY_DBS-all_RLatLon0.03_PT007H.nc 2026-05-08 06:12 218M
20260508T00Z_MSC_CAPS_SensibleHeatNetFlux_Sfc_RLatLon0.03_PT007H.grib2 2026-05-08 06:06 2.0M
20260508T00Z_MSC_CAPS_ShowalterIndex_IsbL-0500_RLatLon0.03_PT007H.grib2 2026-05-08 06:06 4.3M
20260508T00Z_MSC_CAPS_Snow-Accum_Sfc_RLatLon0.03_PT007H.grib2 2026-05-08 06:06 2.3M
20260508T00Z_MSC_CAPS_SnowDensity_Sfc_RLatLon0.03_PT007H.grib2 2026-05-08 06:06 1.2M
20260508T00Z_MSC_CAPS_SnowDepthWaterEquivalent_Sfc_RLatLon0.03_PT007H.grib2 2026-05-08 06:06 638K
20260508T00Z_MSC_CAPS_SnowDepth_Sfc_RLatLon0.03_PT007H.grib2 2026-05-08 06:06 1.1M
20260508T00Z_MSC_CAPS_SoilTemp_DBS-0to10cm_RLatLon0.03_PT007H.grib2 2026-05-08 06:06 1.4M
20260508T00Z_MSC_CAPS_SoilTemp_Sfc_RLatLon0.03_PT007H.grib2 2026-05-08 06:06 1.9M
20260508T00Z_MSC_CAPS_SoilVolumetricIceContent_Sfc_RLatLon0.03_PT007H.grib2 2026-05-08 06:06 1.3M
20260508T00Z_MSC_CAPS_SoilVolumetricWaterContent_DBS-0to10cm_RLatLon0.03_PT007H.grib2 2026-05-08 06:06 1.3M
20260508T00Z_MSC_CAPS_SoilVolumetricWaterContent_DBS-0to1cm_RLatLon0.03_PT007H.grib2 2026-05-08 06:06 1.7M
20260508T00Z_MSC_CAPS_SpecificHumidity_AGL-120m_RLatLon0.03_PT007H.grib2 2026-05-08 06:06 1.4M
20260508T00Z_MSC_CAPS_SpecificHumidity_AGL-2m_RLatLon0.03_PT007H.grib2 2026-05-08 06:06 1.8M
20260508T00Z_MSC_CAPS_SpecificHumidity_AGL-40m_RLatLon0.03_PT007H.grib2 2026-05-08 06:06 1.5M
20260508T00Z_MSC_CAPS_SpecificHumidity_AGL-80m_RLatLon0.03_PT007H.grib2 2026-05-08 06:06 1.5M
20260508T00Z_MSC_CAPS_SpecificHumidity_IsbL-0050_RLatLon0.03_PT007H.grib2 2026-05-08 06:06 873K
20260508T00Z_MSC_CAPS_SpecificHumidity_IsbL-0100_RLatLon0.03_PT007H.grib2 2026-05-08 06:06 1.0M
20260508T00Z_MSC_CAPS_SpecificHumidity_IsbL-0150_RLatLon0.03_PT007H.grib2 2026-05-08 06:06 1.0M
20260508T00Z_MSC_CAPS_SpecificHumidity_IsbL-0175_RLatLon0.03_PT007H.grib2 2026-05-08 06:06 968K
20260508T00Z_MSC_CAPS_SpecificHumidity_IsbL-0200_RLatLon0.03_PT007H.grib2 2026-05-08 06:06 1.0M
20260508T00Z_MSC_CAPS_SpecificHumidity_IsbL-0225_RLatLon0.03_PT007H.grib2 2026-05-08 06:06 845K
20260508T00Z_MSC_CAPS_SpecificHumidity_IsbL-0250_RLatLon0.03_PT007H.grib2 2026-05-08 06:06 852K
20260508T00Z_MSC_CAPS_SpecificHumidity_IsbL-0275_RLatLon0.03_PT007H.grib2 2026-05-08 06:06 1.1M
20260508T00Z_MSC_CAPS_SpecificHumidity_IsbL-0300_RLatLon0.03_PT007H.grib2 2026-05-08 06:06 1.1M
20260508T00Z_MSC_CAPS_SpecificHumidity_IsbL-0350_RLatLon0.03_PT007H.grib2 2026-05-08 06:06 1.0M
20260508T00Z_MSC_CAPS_SpecificHumidity_IsbL-0400_RLatLon0.03_PT007H.grib2 2026-05-08 06:06 1.0M
20260508T00Z_MSC_CAPS_SpecificHumidity_IsbL-0450_RLatLon0.03_PT007H.grib2 2026-05-08 06:06 946K
20260508T00Z_MSC_CAPS_SpecificHumidity_IsbL-0500_RLatLon0.03_PT007H.grib2 2026-05-08 06:06 1.1M
20260508T00Z_MSC_CAPS_SpecificHumidity_IsbL-0550_RLatLon0.03_PT007H.grib2 2026-05-08 06:06 1.4M
20260508T00Z_MSC_CAPS_SpecificHumidity_IsbL-0600_RLatLon0.03_PT007H.grib2 2026-05-08 06:06 1.4M
20260508T00Z_MSC_CAPS_SpecificHumidity_IsbL-0650_RLatLon0.03_PT007H.grib2 2026-05-08 06:06 1.2M
20260508T00Z_MSC_CAPS_SpecificHumidity_IsbL-0700_RLatLon0.03_PT007H.grib2 2026-05-08 06:06 1.3M
20260508T00Z_MSC_CAPS_SpecificHumidity_IsbL-0750_RLatLon0.03_PT007H.grib2 2026-05-08 06:06 1.4M
20260508T00Z_MSC_CAPS_SpecificHumidity_IsbL-0800_RLatLon0.03_PT007H.grib2 2026-05-08 06:06 1.6M
20260508T00Z_MSC_CAPS_SpecificHumidity_IsbL-0850_RLatLon0.03_PT007H.grib2 2026-05-08 06:06 1.8M
20260508T00Z_MSC_CAPS_SpecificHumidity_IsbL-0875_RLatLon0.03_PT007H.grib2 2026-05-08 06:06 1.8M
20260508T00Z_MSC_CAPS_SpecificHumidity_IsbL-0900_RLatLon0.03_PT007H.grib2 2026-05-08 06:06 1.5M
20260508T00Z_MSC_CAPS_SpecificHumidity_IsbL-0925_RLatLon0.03_PT007H.grib2 2026-05-08 06:06 1.6M
20260508T00Z_MSC_CAPS_SpecificHumidity_IsbL-0950_RLatLon0.03_PT007H.grib2 2026-05-08 06:06 1.6M
20260508T00Z_MSC_CAPS_SpecificHumidity_IsbL-0970_RLatLon0.03_PT007H.grib2 2026-05-08 06:06 1.7M
20260508T00Z_MSC_CAPS_SpecificHumidity_IsbL-0985_RLatLon0.03_PT007H.grib2 2026-05-08 06:06 1.7M
20260508T00Z_MSC_CAPS_SpecificHumidity_IsbL-1000_RLatLon0.03_PT007H.grib2 2026-05-08 06:06 1.7M
20260508T00Z_MSC_CAPS_SpecificHumidity_IsbL-1015_RLatLon0.03_PT007H.grib2 2026-05-08 06:06 1.8M
20260508T00Z_MSC_CAPS_SpecificHumidity_Sfc_RLatLon0.03_PT007H.grib2 2026-05-08 06:06 2.1M
20260508T00Z_MSC_CAPS_StormRelativeHelicity_Sfc_RLatLon0.03_PT007H.grib2 2026-05-08 06:06 3.1M
20260508T00Z_MSC_CAPS_Thickness_IsbL-1000to0500_RLatLon0.03_PT007H.grib2 2026-05-08 06:06 416K
20260508T00Z_MSC_CAPS_TotalCloudCover_Sfc_RLatLon0.03_PT007H.grib2 2026-05-08 06:06 3.5M
20260508T00Z_MSC_CAPS_TurboclineDepth_Sfc_RLatLon0.03_PT007H.nc 2026-05-08 06:12 16M
20260508T00Z_MSC_CAPS_UpwardLongwaveRadiationFlux_NTAtm_RLatLon0.03_PT007H.grib2 2026-05-08 06:06 2.9M
20260508T00Z_MSC_CAPS_UpwardShortwaveRadiationFlux_NTAtm_RLatLon0.03_PT007H.grib2 2026-05-08 06:06 1.8M
20260508T00Z_MSC_CAPS_VerticalVelocity_IsbL-0250_RLatLon0.03_PT007H.grib2 2026-05-08 06:06 1.1M
20260508T00Z_MSC_CAPS_VerticalVelocity_IsbL-0500_RLatLon0.03_PT007H.grib2 2026-05-08 06:06 1.0M
20260508T00Z_MSC_CAPS_VerticalVelocity_IsbL-0700_RLatLon0.03_PT007H.grib2 2026-05-08 06:06 1.2M
20260508T00Z_MSC_CAPS_VerticalVelocity_IsbL-0850_RLatLon0.03_PT007H.grib2 2026-05-08 06:06 1.4M
20260508T00Z_MSC_CAPS_VerticalVelocity_IsbL-1000_RLatLon0.03_PT007H.grib2 2026-05-08 06:06 1.3M
20260508T00Z_MSC_CAPS_WindDir_AGL-10m_RLatLon0.03_PT007H.grib2 2026-05-08 06:06 2.5M
20260508T00Z_MSC_CAPS_WindDir_AGL-120m_RLatLon0.03_PT007H.grib2 2026-05-08 06:06 1.3M
20260508T00Z_MSC_CAPS_WindDir_AGL-40m_RLatLon0.03_PT007H.grib2 2026-05-08 06:06 1.4M
20260508T00Z_MSC_CAPS_WindDir_AGL-80m_RLatLon0.03_PT007H.grib2 2026-05-08 06:06 1.3M
20260508T00Z_MSC_CAPS_WindDir_IsbL-0050_RLatLon0.03_PT007H.grib2 2026-05-08 06:06 1.1M
20260508T00Z_MSC_CAPS_WindDir_IsbL-0100_RLatLon0.03_PT007H.grib2 2026-05-08 06:06 1.0M
20260508T00Z_MSC_CAPS_WindDir_IsbL-0150_RLatLon0.03_PT007H.grib2 2026-05-08 06:06 1.1M
20260508T00Z_MSC_CAPS_WindDir_IsbL-0175_RLatLon0.03_PT007H.grib2 2026-05-08 06:06 1.1M
20260508T00Z_MSC_CAPS_WindDir_IsbL-0200_RLatLon0.03_PT007H.grib2 2026-05-08 06:06 1.1M
20260508T00Z_MSC_CAPS_WindDir_IsbL-0225_RLatLon0.03_PT007H.grib2 2026-05-08 06:06 1.1M
20260508T00Z_MSC_CAPS_WindDir_IsbL-0250_RLatLon0.03_PT007H.grib2 2026-05-08 06:06 1.2M
20260508T00Z_MSC_CAPS_WindDir_IsbL-0275_RLatLon0.03_PT007H.grib2 2026-05-08 06:06 1.1M
20260508T00Z_MSC_CAPS_WindDir_IsbL-0300_RLatLon0.03_PT007H.grib2 2026-05-08 06:06 1.1M
20260508T00Z_MSC_CAPS_WindDir_IsbL-0350_RLatLon0.03_PT007H.grib2 2026-05-08 06:06 1.1M
20260508T00Z_MSC_CAPS_WindDir_IsbL-0400_RLatLon0.03_PT007H.grib2 2026-05-08 06:06 1.2M
20260508T00Z_MSC_CAPS_WindDir_IsbL-0450_RLatLon0.03_PT007H.grib2 2026-05-08 06:06 1.2M
20260508T00Z_MSC_CAPS_WindDir_IsbL-0500_RLatLon0.03_PT007H.grib2 2026-05-08 06:06 1.2M
20260508T00Z_MSC_CAPS_WindDir_IsbL-0550_RLatLon0.03_PT007H.grib2 2026-05-08 06:06 1.3M
20260508T00Z_MSC_CAPS_WindDir_IsbL-0600_RLatLon0.03_PT007H.grib2 2026-05-08 06:06 1.3M
20260508T00Z_MSC_CAPS_WindDir_IsbL-0650_RLatLon0.03_PT007H.grib2 2026-05-08 06:06 1.4M
20260508T00Z_MSC_CAPS_WindDir_IsbL-0700_RLatLon0.03_PT007H.grib2 2026-05-08 06:06 1.5M
20260508T00Z_MSC_CAPS_WindDir_IsbL-0750_RLatLon0.03_PT007H.grib2 2026-05-08 06:06 1.6M
20260508T00Z_MSC_CAPS_WindDir_IsbL-0800_RLatLon0.03_PT007H.grib2 2026-05-08 06:06 1.8M
20260508T00Z_MSC_CAPS_WindDir_IsbL-0850_RLatLon0.03_PT007H.grib2 2026-05-08 06:06 1.9M
20260508T00Z_MSC_CAPS_WindDir_IsbL-0875_RLatLon0.03_PT007H.grib2 2026-05-08 06:06 1.9M
20260508T00Z_MSC_CAPS_WindDir_IsbL-0900_RLatLon0.03_PT007H.grib2 2026-05-08 06:06 2.0M
20260508T00Z_MSC_CAPS_WindDir_IsbL-0925_RLatLon0.03_PT007H.grib2 2026-05-08 06:06 2.0M
20260508T00Z_MSC_CAPS_WindDir_IsbL-0950_RLatLon0.03_PT007H.grib2 2026-05-08 06:06 2.1M
20260508T00Z_MSC_CAPS_WindDir_IsbL-0970_RLatLon0.03_PT007H.grib2 2026-05-08 06:06 2.2M
20260508T00Z_MSC_CAPS_WindDir_IsbL-0985_RLatLon0.03_PT007H.grib2 2026-05-08 06:06 2.3M
20260508T00Z_MSC_CAPS_WindDir_IsbL-1000_RLatLon0.03_PT007H.grib2 2026-05-08 06:06 2.4M
20260508T00Z_MSC_CAPS_WindDir_IsbL-1015_RLatLon0.03_PT007H.grib2 2026-05-08 06:06 2.5M
20260508T00Z_MSC_CAPS_WindGust-Max_AGL-10m_RLatLon0.03_PT007H.grib2 2026-05-08 06:06 2.5M
20260508T00Z_MSC_CAPS_WindGust-Min_AGL-10m_RLatLon0.03_PT007H.grib2 2026-05-08 06:06 2.3M
20260508T00Z_MSC_CAPS_WindGust_AGL-10m_RLatLon0.03_PT007H.grib2 2026-05-08 06:06 2.4M
20260508T00Z_MSC_CAPS_WindSpeed_AGL-10m_RLatLon0.03_PT007H.grib2 2026-05-08 06:06 2.1M
20260508T00Z_MSC_CAPS_WindSpeed_AGL-120m_RLatLon0.03_PT007H.grib2 2026-05-08 06:06 1.1M
20260508T00Z_MSC_CAPS_WindSpeed_AGL-40m_RLatLon0.03_PT007H.grib2 2026-05-08 06:06 1.2M
20260508T00Z_MSC_CAPS_WindSpeed_AGL-80m_RLatLon0.03_PT007H.grib2 2026-05-08 06:06 1.1M
20260508T00Z_MSC_CAPS_WindSpeed_IsbL-0050_RLatLon0.03_PT007H.grib2 2026-05-08 06:06 856K
20260508T00Z_MSC_CAPS_WindSpeed_IsbL-0100_RLatLon0.03_PT007H.grib2 2026-05-08 06:06 1.1M
20260508T00Z_MSC_CAPS_WindSpeed_IsbL-0150_RLatLon0.03_PT007H.grib2 2026-05-08 06:06 1.0M
20260508T00Z_MSC_CAPS_WindSpeed_IsbL-0175_RLatLon0.03_PT007H.grib2 2026-05-08 06:06 1.1M
20260508T00Z_MSC_CAPS_WindSpeed_IsbL-0200_RLatLon0.03_PT007H.grib2 2026-05-08 06:06 889K
20260508T00Z_MSC_CAPS_WindSpeed_IsbL-0225_RLatLon0.03_PT007H.grib2 2026-05-08 06:06 1.0M
20260508T00Z_MSC_CAPS_WindSpeed_IsbL-0250_RLatLon0.03_PT007H.grib2 2026-05-08 06:06 1.1M
20260508T00Z_MSC_CAPS_WindSpeed_IsbL-0275_RLatLon0.03_PT007H.grib2 2026-05-08 06:06 1.0M
20260508T00Z_MSC_CAPS_WindSpeed_IsbL-0300_RLatLon0.03_PT007H.grib2 2026-05-08 06:06 1.0M
20260508T00Z_MSC_CAPS_WindSpeed_IsbL-0350_RLatLon0.03_PT007H.grib2 2026-05-08 06:06 1.0M
20260508T00Z_MSC_CAPS_WindSpeed_IsbL-0400_RLatLon0.03_PT007H.grib2 2026-05-08 06:06 1.0M
20260508T00Z_MSC_CAPS_WindSpeed_IsbL-0450_RLatLon0.03_PT007H.grib2 2026-05-08 06:06 1.0M
20260508T00Z_MSC_CAPS_WindSpeed_IsbL-0500_RLatLon0.03_PT007H.grib2 2026-05-08 06:06 1.3M
20260508T00Z_MSC_CAPS_WindSpeed_IsbL-0550_RLatLon0.03_PT007H.grib2 2026-05-08 06:06 1.5M
20260508T00Z_MSC_CAPS_WindSpeed_IsbL-0600_RLatLon0.03_PT007H.grib2 2026-05-08 06:06 1.4M
20260508T00Z_MSC_CAPS_WindSpeed_IsbL-0650_RLatLon0.03_PT007H.grib2 2026-05-08 06:06 1.5M
20260508T00Z_MSC_CAPS_WindSpeed_IsbL-0700_RLatLon0.03_PT007H.grib2 2026-05-08 06:06 1.5M
20260508T00Z_MSC_CAPS_WindSpeed_IsbL-0750_RLatLon0.03_PT007H.grib2 2026-05-08 06:06 1.6M
20260508T00Z_MSC_CAPS_WindSpeed_IsbL-0800_RLatLon0.03_PT007H.grib2 2026-05-08 06:06 1.7M
20260508T00Z_MSC_CAPS_WindSpeed_IsbL-0850_RLatLon0.03_PT007H.grib2 2026-05-08 06:06 1.7M
20260508T00Z_MSC_CAPS_WindSpeed_IsbL-0875_RLatLon0.03_PT007H.grib2 2026-05-08 06:06 1.8M
20260508T00Z_MSC_CAPS_WindSpeed_IsbL-0900_RLatLon0.03_PT007H.grib2 2026-05-08 06:06 1.8M
20260508T00Z_MSC_CAPS_WindSpeed_IsbL-0925_RLatLon0.03_PT007H.grib2 2026-05-08 06:06 1.8M
20260508T00Z_MSC_CAPS_WindSpeed_IsbL-0950_RLatLon0.03_PT007H.grib2 2026-05-08 06:06 1.9M
20260508T00Z_MSC_CAPS_WindSpeed_IsbL-0970_RLatLon0.03_PT007H.grib2 2026-05-08 06:06 2.0M
20260508T00Z_MSC_CAPS_WindSpeed_IsbL-0985_RLatLon0.03_PT007H.grib2 2026-05-08 06:06 2.0M
20260508T00Z_MSC_CAPS_WindSpeed_IsbL-1000_RLatLon0.03_PT007H.grib2 2026-05-08 06:06 2.0M
20260508T00Z_MSC_CAPS_WindSpeed_IsbL-1015_RLatLon0.03_PT007H.grib2 2026-05-08 06:06 2.0M
20260508T00Z_MSC_CAPS_WindU_AGL-10m_RLatLon0.03_PT007H.grib2 2026-05-08 06:06 1.9M
20260508T00Z_MSC_CAPS_WindU_AGL-120m_RLatLon0.03_PT007H.grib2 2026-05-08 06:06 889K
20260508T00Z_MSC_CAPS_WindU_AGL-40m_RLatLon0.03_PT007H.grib2 2026-05-08 06:06 1.2M
20260508T00Z_MSC_CAPS_WindU_AGL-80m_RLatLon0.03_PT007H.grib2 2026-05-08 06:06 896K
20260508T00Z_MSC_CAPS_WindU_IsbL-0050_RLatLon0.03_PT007H.grib2 2026-05-08 06:06 769K
20260508T00Z_MSC_CAPS_WindU_IsbL-0100_RLatLon0.03_PT007H.grib2 2026-05-08 06:06 786K
20260508T00Z_MSC_CAPS_WindU_IsbL-0150_RLatLon0.03_PT007H.grib2 2026-05-08 06:06 921K
20260508T00Z_MSC_CAPS_WindU_IsbL-0175_RLatLon0.03_PT007H.grib2 2026-05-08 06:06 952K
20260508T00Z_MSC_CAPS_WindU_IsbL-0200_RLatLon0.03_PT007H.grib2 2026-05-08 06:06 758K
20260508T00Z_MSC_CAPS_WindU_IsbL-0225_RLatLon0.03_PT007H.grib2 2026-05-08 06:06 780K
20260508T00Z_MSC_CAPS_WindU_IsbL-0250_RLatLon0.03_PT007H.grib2 2026-05-08 06:06 927K
20260508T00Z_MSC_CAPS_WindU_IsbL-0275_RLatLon0.03_PT007H.grib2 2026-05-08 06:06 931K
20260508T00Z_MSC_CAPS_WindU_IsbL-0300_RLatLon0.03_PT007H.grib2 2026-05-08 06:06 940K
20260508T00Z_MSC_CAPS_WindU_IsbL-0350_RLatLon0.03_PT007H.grib2 2026-05-08 06:06 953K
20260508T00Z_MSC_CAPS_WindU_IsbL-0400_RLatLon0.03_PT007H.grib2 2026-05-08 06:06 960K
20260508T00Z_MSC_CAPS_WindU_IsbL-0450_RLatLon0.03_PT007H.grib2 2026-05-08 06:06 1.0M
20260508T00Z_MSC_CAPS_WindU_IsbL-0500_RLatLon0.03_PT007H.grib2 2026-05-08 06:06 891K
20260508T00Z_MSC_CAPS_WindU_IsbL-0550_RLatLon0.03_PT007H.grib2 2026-05-08 06:06 926K
20260508T00Z_MSC_CAPS_WindU_IsbL-0600_RLatLon0.03_PT007H.grib2 2026-05-08 06:06 952K
20260508T00Z_MSC_CAPS_WindU_IsbL-0650_RLatLon0.03_PT007H.grib2 2026-05-08 06:06 1.2M
20260508T00Z_MSC_CAPS_WindU_IsbL-0700_RLatLon0.03_PT007H.grib2 2026-05-08 06:06 1.3M
20260508T00Z_MSC_CAPS_WindU_IsbL-0750_RLatLon0.03_PT007H.grib2 2026-05-08 06:06 1.1M
20260508T00Z_MSC_CAPS_WindU_IsbL-0800_RLatLon0.03_PT007H.grib2 2026-05-08 06:06 1.1M
20260508T00Z_MSC_CAPS_WindU_IsbL-0850_RLatLon0.03_PT007H.grib2 2026-05-08 06:06 1.2M
20260508T00Z_MSC_CAPS_WindU_IsbL-0875_RLatLon0.03_PT007H.grib2 2026-05-08 06:06 1.2M
20260508T00Z_MSC_CAPS_WindU_IsbL-0900_RLatLon0.03_PT007H.grib2 2026-05-08 06:06 1.3M
20260508T00Z_MSC_CAPS_WindU_IsbL-0925_RLatLon0.03_PT007H.grib2 2026-05-08 06:06 1.3M
20260508T00Z_MSC_CAPS_WindU_IsbL-0950_RLatLon0.03_PT007H.grib2 2026-05-08 06:06 1.4M
20260508T00Z_MSC_CAPS_WindU_IsbL-0970_RLatLon0.03_PT007H.grib2 2026-05-08 06:06 1.4M
20260508T00Z_MSC_CAPS_WindU_IsbL-0985_RLatLon0.03_PT007H.grib2 2026-05-08 06:06 1.4M
20260508T00Z_MSC_CAPS_WindU_IsbL-1000_RLatLon0.03_PT007H.grib2 2026-05-08 06:06 1.8M
20260508T00Z_MSC_CAPS_WindU_IsbL-1015_RLatLon0.03_PT007H.grib2 2026-05-08 06:06 1.9M
20260508T00Z_MSC_CAPS_WindV_AGL-10m_RLatLon0.03_PT007H.grib2 2026-05-08 06:06 2.0M
20260508T00Z_MSC_CAPS_WindV_AGL-120m_RLatLon0.03_PT007H.grib2 2026-05-08 06:06 1.1M
20260508T00Z_MSC_CAPS_WindV_AGL-40m_RLatLon0.03_PT007H.grib2 2026-05-08 06:06 1.2M
20260508T00Z_MSC_CAPS_WindV_AGL-80m_RLatLon0.03_PT007H.grib2 2026-05-08 06:06 1.1M
20260508T00Z_MSC_CAPS_WindV_IsbL-0050_RLatLon0.03_PT007H.grib2 2026-05-08 06:06 775K
20260508T00Z_MSC_CAPS_WindV_IsbL-0100_RLatLon0.03_PT007H.grib2 2026-05-08 06:06 783K
20260508T00Z_MSC_CAPS_WindV_IsbL-0150_RLatLon0.03_PT007H.grib2 2026-05-08 06:06 700K
20260508T00Z_MSC_CAPS_WindV_IsbL-0175_RLatLon0.03_PT007H.grib2 2026-05-08 06:06 850K
20260508T00Z_MSC_CAPS_WindV_IsbL-0200_RLatLon0.03_PT007H.grib2 2026-05-08 06:06 873K
20260508T00Z_MSC_CAPS_WindV_IsbL-0225_RLatLon0.03_PT007H.grib2 2026-05-08 06:06 684K
20260508T00Z_MSC_CAPS_WindV_IsbL-0250_RLatLon0.03_PT007H.grib2 2026-05-08 06:06 827K
20260508T00Z_MSC_CAPS_WindV_IsbL-0275_RLatLon0.03_PT007H.grib2 2026-05-08 06:06 711K
20260508T00Z_MSC_CAPS_WindV_IsbL-0300_RLatLon0.03_PT007H.grib2 2026-05-08 06:06 719K
20260508T00Z_MSC_CAPS_WindV_IsbL-0350_RLatLon0.03_PT007H.grib2 2026-05-08 06:06 729K
20260508T00Z_MSC_CAPS_WindV_IsbL-0400_RLatLon0.03_PT007H.grib2 2026-05-08 06:06 734K
20260508T00Z_MSC_CAPS_WindV_IsbL-0450_RLatLon0.03_PT007H.grib2 2026-05-08 06:06 973K
20260508T00Z_MSC_CAPS_WindV_IsbL-0500_RLatLon0.03_PT007H.grib2 2026-05-08 06:06 1.0M
20260508T00Z_MSC_CAPS_WindV_IsbL-0550_RLatLon0.03_PT007H.grib2 2026-05-08 06:06 1.0M
20260508T00Z_MSC_CAPS_WindV_IsbL-0600_RLatLon0.03_PT007H.grib2 2026-05-08 06:06 935K
20260508T00Z_MSC_CAPS_WindV_IsbL-0650_RLatLon0.03_PT007H.grib2 2026-05-08 06:06 969K
20260508T00Z_MSC_CAPS_WindV_IsbL-0700_RLatLon0.03_PT007H.grib2 2026-05-08 06:06 1.0M
20260508T00Z_MSC_CAPS_WindV_IsbL-0750_RLatLon0.03_PT007H.grib2 2026-05-08 06:06 1.0M
20260508T00Z_MSC_CAPS_WindV_IsbL-0800_RLatLon0.03_PT007H.grib2 2026-05-08 06:06 1.1M
20260508T00Z_MSC_CAPS_WindV_IsbL-0850_RLatLon0.03_PT007H.grib2 2026-05-08 06:06 1.2M
20260508T00Z_MSC_CAPS_WindV_IsbL-0875_RLatLon0.03_PT007H.grib2 2026-05-08 06:06 1.2M
20260508T00Z_MSC_CAPS_WindV_IsbL-0900_RLatLon0.03_PT007H.grib2 2026-05-08 06:06 1.6M
20260508T00Z_MSC_CAPS_WindV_IsbL-0925_RLatLon0.03_PT007H.grib2 2026-05-08 06:06 1.6M
20260508T00Z_MSC_CAPS_WindV_IsbL-0950_RLatLon0.03_PT007H.grib2 2026-05-08 06:06 1.7M
20260508T00Z_MSC_CAPS_WindV_IsbL-0970_RLatLon0.03_PT007H.grib2 2026-05-08 06:06 1.7M
20260508T00Z_MSC_CAPS_WindV_IsbL-0985_RLatLon0.03_PT007H.grib2 2026-05-08 06:06 1.9M
20260508T00Z_MSC_CAPS_WindV_IsbL-1000_RLatLon0.03_PT007H.grib2 2026-05-08 06:06 1.9M
20260508T00Z_MSC_CAPS_WindV_IsbL-1015_RLatLon0.03_PT007H.grib2 2026-05-08 06:06 2.0M